This is the latest recevied weather packets stored in our database for station/object EA3ANS-1. If no packets are shown the sender has not sent any weather packets the latest 10 day(s).
| Time | Temp. | Humidity | Pressure | Rain* | Wind** | Luminosity | Snow |
|---|---|---|---|---|---|---|---|
| 1787626658 | 21.11° C | - | 1010.3 hPa | 0 mm | 1.79 m/s, 332° | - | - |
| 1787626607 | 21.11° C | - | 1010.3 hPa | 0 mm | 1.79 m/s, 332° | - | - |
| 1787626063 | 21.11° C | - | 1010.3 hPa | 0 mm | 2.24 m/s, 336° | - | - |
| 1787626010 | 21.11° C | - | 1010.3 hPa | 0 mm | 2.24 m/s, 336° | - | - |
| 1787625458 | 21.67° C | - | 1010.3 hPa | 0 mm | 1.79 m/s, 335° | - | - |
| 1787625413 | 21.67° C | - | 1010.3 hPa | 0 mm | 1.79 m/s, 335° | - | - |
| 1787624815 | 21.67° C | - | 1010.3 hPa | 0 mm | 1.34 m/s, 266° | - | - |
| 1787624216 | 21.67° C | - | 1010.3 hPa | 0 mm | 0.89 m/s, 342° | - | - |
| 1787623779 | 21.67° C | - | 1010.3 hPa | 0 mm | 1.34 m/s, 304° | - | - |
| 1787623619 | 21.67° C | - | 1010.3 hPa | 0 mm | 1.34 m/s, 304° | - | - |
| 1787623153 | 22.22° C | - | 1010.2 hPa | 0 mm | 1.34 m/s, 325° | - | - |
| 1787623100 | 22.22° C | - | 1010.2 hPa | 0 mm | 1.34 m/s, 325° | - | - |
| 1787623021 | 22.22° C | - | 1010.2 hPa | 0 mm | 1.34 m/s, 325° | - | - |
| 1787622417 | 21.67° C | - | 1010.2 hPa | 0 mm | 1.79 m/s, 23° | - | - |
| 1787622019 | 22.22° C | - | 1010.2 hPa | 0 mm | 1.34 m/s, 322° | - | - |
| 1787621819 | 22.22° C | - | 1010.2 hPa | 0 mm | 1.34 m/s, 322° | - | - |
| 1787621222 | 22.22° C | - | 1010.2 hPa | 0 mm | 2.68 m/s, 326° | - | - |
| 1787620624 | 22.22° C | - | 1010.2 hPa | 0 mm | 3.13 m/s, 297° | - | - |
| 1787620023 | 22.22° C | - | 1010.2 hPa | 0 mm | 2.68 m/s, 311° | - | - |
| 1787619460 | 22.22° C | - | 1010.2 hPa | 0 mm | 2.24 m/s, 17° | - | - |
| 1787619419 | 22.22° C | - | 1010.2 hPa | 0 mm | 2.24 m/s, 17° | - | - |
| 1787618872 | 22.22° C | - | 1010.3 hPa | 0 mm | 1.34 m/s, 318° | - | - |
| 1787618821 | 22.22° C | - | 1010.3 hPa | 0 mm | 1.34 m/s, 318° | - | - |
| 1787618219 | 22.22° C | - | 1010.3 hPa | 0 mm | 2.24 m/s, 308° | - | - |
| 1787618107 | 22.78° C | - | 1010.3 hPa | 0 mm | 0.89 m/s, 311° | - | - |
* Rain latest hour (hover to see other rain measurements)
** Current wind speed in m/s (hover to see current wind gust speed)